When you browse on this site, cookies collect data to enhance your experience and personalize the content and advertising you see.
Visit our Privacy Policy to learn more. By continuing to use the site, you agree to this use of cookies and data.
  • în România
  • Lista ţărilor
  • Pe 7 zile
  • Temperatura apei
  • Hartă satelitară
  • Meteo pe hartă
  • Widget-uri
  • user-avatar
    Intrare

    Meteo pe oră la Kaftyrevo

    Astăzi, 19 Martie, Marţi

    Timp Temperatura Precipitaţii Vânt Presiune Umiditate
    00:00 +2°C° 0.5 mm 3 m/s 737 mmHg 93%
    01:00 +2°C° 0.5 mm 2 m/s 737 mmHg 95%
    02:00 +2°C° 0.5 mm 2 m/s 737 mmHg 97%
    03:00 +3°C° 0.4 mm 1 m/s 737 mmHg 97%
    04:00 +2°C° 0.4 mm 1 m/s 737 mmHg 97%
    05:00 +2°C° 0.4 mm 1 m/s 737 mmHg 97%
    06:00 +3°C° 0 mm 1 m/s 737 mmHg 95%
    07:00 +3°C° 0 mm 1 m/s 737 mmHg 93%
    08:00 +3°C° 0 mm 2 m/s 737 mmHg 91%
    09:00 +3°C° 0 mm 2 m/s 738 mmHg 88%
    10:00 +4°C° 0 mm 2 m/s 738 mmHg 85%
    11:00 +5°C° 0 mm 2 m/s 738 mmHg 81%
    12:00 +4°C° 0 mm 3 m/s 738 mmHg 79%
    13:00 +5°C° 0 mm 3 m/s 738 mmHg 77%
    14:00 +5°C° 0 mm 3 m/s 738 mmHg 74%
    15:00 +4°C° 0 mm 3 m/s 739 mmHg 78%
    16:00 +4°C° 0 mm 2 m/s 739 mmHg 82%
    17:00 +3°C° 0 mm 2 m/s 739 mmHg 86%
    18:00 +3°C° 0 mm 2 m/s 739 mmHg 88%
    19:00 +2°C° 0 mm 2 m/s 739 mmHg 89%
    20:00 +1°C° 0 mm 2 m/s 739 mmHg 91%
    21:00 +1°C° 0 mm 2 m/s 740 mmHg 91%
    22:00 -1°C° 0 mm 2 m/s 740 mmHg 92%
    23:00 -1°C° 0 mm 2 m/s 740 mmHg 92%

    Mâine, 20 Martie, Miercuri

    Timp Temperatura Precipitaţii Vânt Presiune Umiditate
    00:00 -1°C° 0 mm 2 m/s 740 mmHg 92%
    01:00 -1°C° 0 mm 2 m/s 740 mmHg 92%
    02:00 -2°C° 0 mm 3 m/s 740 mmHg 92%
    03:00 -2°C° 0 mm 3 m/s 740 mmHg 92%
    04:00 -2°C° 0 mm 3 m/s 740 mmHg 93%
    05:00 -2°C° 0 mm 3 m/s 740 mmHg 93%
    06:00 -2°C° 0 mm 3 m/s 741 mmHg 90%
    07:00 -1°C° 0 mm 3 m/s 741 mmHg 87%
    08:00 -1°C° 0 mm 4 m/s 741 mmHg 84%
    09:00 -1°C° 0 mm 4 m/s 742 mmHg 82%
    10:00 0°C° 0 mm 4 m/s 742 mmHg 79%
    11:00 0°C° 0 mm 4 m/s 742 mmHg 77%
    12:00 0°C° 0 mm 4 m/s 742 mmHg 76%
    13:00 0°C° 0 mm 4 m/s 742 mmHg 76%
    14:00 +1°C° 0 mm 4 m/s 742 mmHg 75%
    15:00 +1°C° 0 mm 3 m/s 742 mmHg 76%
    16:00 +1°C° 0 mm 3 m/s 742 mmHg 78%
    17:00 0°C° 0 mm 3 m/s 742 mmHg 79%
    18:00 0°C° 0 mm 3 m/s 742 mmHg 81%
    19:00 -1°C° 0 mm 3 m/s 742 mmHg 83%
    20:00 -2°C° 0 mm 3 m/s 742 mmHg 85%
    21:00 -2°C° 0 mm 3 m/s 741 mmHg 84%
    22:00 -2°C° 0 mm 3 m/s 741 mmHg 83%
    23:00 -2°C° 0 mm 3 m/s 740 mmHg 82%

    Poimâine, 21 Martie, Joi

    Timp Temperatura Precipitaţii Vânt Presiune Umiditate
    00:00 -2°C° 0.2 mm 3 m/s 740 mmHg 85%
    01:00 -3°C° 0.2 mm 4 m/s 739 mmHg 87%
    02:00 -3°C° 0.2 mm 4 m/s 738 mmHg 90%
    03:00 -1°C° 0.3 mm 3 m/s 738 mmHg 90%
    04:00 -1°C° 0.3 mm 3 m/s 738 mmHg 90%
    05:00 -1°C° 0.3 mm 3 m/s 737 mmHg 91%
    06:00 0°C° 0.1 mm 3 m/s 738 mmHg 88%
    07:00 -1°C° 0.1 mm 4 m/s 738 mmHg 85%
    08:00 -1°C° 0.1 mm 4 m/s 739 mmHg 82%
    09:00 -1°C° 0 mm 4 m/s 739 mmHg 80%
    10:00 0°C° 0 mm 4 m/s 740 mmHg 77%
    11:00 0°C° 0 mm 4 m/s 740 mmHg 75%
    12:00 0°C° 0.1 mm 4 m/s 740 mmHg 74%
    13:00 0°C° 0.1 mm 4 m/s 741 mmHg 73%
    14:00 +1°C° 0.1 mm 4 m/s 741 mmHg 73%
    15:00 0°C° 0 mm 4 m/s 741 mmHg 75%
    16:00 +1°C° 0 mm 3 m/s 742 mmHg 77%
    17:00 +1°C° 0 mm 3 m/s 742 mmHg 79%
    18:00 +1°C° 0 mm 2 m/s 742 mmHg 84%
    19:00 -1°C° 0 mm 2 m/s 742 mmHg 88%
    20:00 -3°C° 0 mm 2 m/s 743 mmHg 93%
    21:00 -3°C° 0 mm 2 m/s 742 mmHg 93%
    22:00 -3°C° 0 mm 2 m/s 742 mmHg 93%
    23:00 -3°C° 0 mm 2 m/s 742 mmHg 94%

    22 Martie, Vineri

    Timp Temperatura Precipitaţii Vânt Presiune Umiditate
    00:00 -3°C° 0 mm 2 m/s 742 mmHg 93%
    01:00 -2°C° 0 mm 2 m/s 742 mmHg 93%
    02:00 -2°C° 0 mm 2 m/s 741 mmHg 93%
    03:00 -2°C° 0 mm 3 m/s 741 mmHg 91%
    04:00 -1°C° 0 mm 3 m/s 741 mmHg 89%
    05:00 0°C° 0 mm 3 m/s 740 mmHg 87%
    06:00 0°C° 0.1 mm 3 m/s 740 mmHg 89%
    07:00 +1°C° 0.1 mm 3 m/s 739 mmHg 90%
    08:00 +1°C° 0.1 mm 3 m/s 739 mmHg 92%
    09:00 +2°C° 0.3 mm 3 m/s 739 mmHg 91%
    10:00 +3°C° 0.3 mm 4 m/s 738 mmHg 91%
    11:00 +3°C° 0.3 mm 4 m/s 738 mmHg 90%
    12:00 +4°C° 0.1 mm 4 m/s 737 mmHg 90%
    13:00 +4°C° 0.1 mm 4 m/s 736 mmHg 89%
    14:00 +5°C° 0.1 mm 5 m/s 735 mmHg 89%
    15:00 +5°C° 0.2 mm 5 m/s 734 mmHg 89%
    16:00 +5°C° 0.2 mm 5 m/s 734 mmHg 89%
    17:00 +4°C° 0.2 mm 6 m/s 733 mmHg 88%
    18:00 +3°C° 0.2 mm 6 m/s 733 mmHg 82%
    19:00 +2°C° 0.2 mm 6 m/s 732 mmHg 75%
    20:00 0°C° 0.2 mm 7 m/s 732 mmHg 68%
    21:00 -1°C° 0 mm 7 m/s 733 mmHg 70%
    22:00 -1°C° 0 mm 7 m/s 733 mmHg 73%
    23:00 -2°C° 0 mm 7 m/s 733 mmHg 75%

    23 Martie, Sâmbătă

    Timp Temperatura Precipitaţii Vânt Presiune Umiditate
    00:00 -2°C° 0 mm 7 m/s 734 mmHg 75%
    01:00 -2°C° 0 mm 7 m/s 734 mmHg 75%
    02:00 -3°C° 0 mm 7 m/s 734 mmHg 75%
    03:00 -3°C° 0 mm 7 m/s 735 mmHg 76%
    04:00 -3°C° 0 mm 6 m/s 735 mmHg 76%
    05:00 -4°C° 0 mm 6 m/s 736 mmHg 77%
    06:00 -3°C° 0 mm 6 m/s 736 mmHg 76%
    07:00 -3°C° 0 mm 6 m/s 737 mmHg 75%
    08:00 -3°C° 0 mm 6 m/s 737 mmHg 74%
    09:00 -2°C° 0 mm 5 m/s 737 mmHg 72%
    10:00 -1°C° 0 mm 5 m/s 737 mmHg 71%
    11:00 -1°C° 0 mm 5 m/s 737 mmHg 70%
    12:00 0°C° 0 mm 4 m/s 737 mmHg 69%
    13:00 0°C° 0 mm 4 m/s 736 mmHg 69%
    14:00 +1°C° 0 mm 4 m/s 736 mmHg 68%
    15:00 0°C° 0.2 mm 4 m/s 735 mmHg 74%
    16:00 0°C° 0.2 mm 3 m/s 735 mmHg 79%
    17:00 0°C° 0.2 mm 3 m/s 734 mmHg 85%
    18:00 -1°C° 0.1 mm 3 m/s 734 mmHg 87%
    19:00 -1°C° 0.1 mm 2 m/s 733 mmHg 89%
    20:00 -1°C° 0.1 mm 2 m/s 733 mmHg 91%
    21:00 -1°C° 0 mm 2 m/s 734 mmHg 90%
    22:00 -1°C° 0 mm 3 m/s 734 mmHg 90%
    23:00 0°C° 0 mm 3 m/s 734 mmHg 90%

    24 Martie, Duminică

    Timp Temperatura Precipitaţii Vânt Presiune Umiditate
    00:00 -1°C° 0 mm 3 m/s 734 mmHg 89%
    01:00 -1°C° 0 mm 3 m/s 735 mmHg 87%
    02:00 -1°C° 0 mm 3 m/s 735 mmHg 86%
    03:00 -1°C° 0 mm 3 m/s 735 mmHg 86%
    04:00 -1°C° 0 mm 3 m/s 736 mmHg 87%
    05:00 -1°C° 0 mm 3 m/s 736 mmHg 87%
    06:00 -1°C° 0 mm 3 m/s 736 mmHg 85%
    07:00 -1°C° 0 mm 3 m/s 737 mmHg 83%
    08:00 -2°C° 0 mm 4 m/s 737 mmHg 81%
    09:00 0°C° 0 mm 3 m/s 737 mmHg 78%
    10:00 0°C° 0 mm 3 m/s 737 mmHg 75%
    11:00 +1°C° 0 mm 3 m/s 737 mmHg 72%
    12:00 +1°C° 0 mm 3 m/s 737 mmHg 69%
    13:00 +2°C° 0 mm 3 m/s 736 mmHg 66%
    14:00 +3°C° 0 mm 3 m/s 736 mmHg 64%
    15:00 +3°C° 0 mm 2 m/s 736 mmHg 67%
    16:00 +3°C° 0 mm 2 m/s 735 mmHg 71%
    17:00 +3°C° 0 mm 1 m/s 735 mmHg 74%
    18:00 +3°C° 0 mm 1 m/s 734 mmHg 78%
    19:00 +2°C° 0 mm 1 m/s 734 mmHg 82%
    20:00 +1°C° 0 mm 1 m/s 733 mmHg 85%
    21:00 +1°C° 0 mm 1 m/s 732 mmHg 87%
    22:00 +1°C° 0 mm 1 m/s 732 mmHg 89%
    23:00 +1°C° 0 mm 1 m/s 731 mmHg 91%
    Arată mai mult